This demonstration page uses our WeatherBlox Daily Observations layout. Learn more.

Left ArrowRight Arrow

Hourly Observations for April 25, 2021

Temp ( °F °C ) Dew Point ( °F °C ) Humidity (%) Winds ( mph kmh ) Pressure ( in mb ) Visibility ( mi km ) Precip ( " mm )
12:43 am 00:43 Cloudy with Light Rain 60 15.6 56 13.3 86 86 SSE 13 20 29.70 1006 8 13 0.03 0.76
12:59 am 00:59 Cloudy with Light Rain 60 15.6 57 13.9 90 90 S 9 15 29.69 1005 9 14 0.03 0.76
1:17 am 01:17 Cloudy with Light Rain 60 15.6 57 13.9 90 90 S 8 13 29.68 1005 9 14 0.00 0.00
1:59 am 01:59 Mostly Cloudy 60 15.6 57 13.9 90 90 VRB 7 11 29.65 1004 8 13 0.00 0.00
2:59 am 02:59 Cloudy 62 16.7 59 15 90 90 SW 8 13 29.61 1003 8 13 0.00 0.00
3:20 am 03:20 Cloudy 62 16.7 59 15 90 90 WSW 10 17 29.62 1003 9 14 0.00 0.00
3:59 am 03:59 Cloudy 63 17.2 59 15 87 87 SW 10 17 29.62 1003 9 14 0.00 0.00
4:59 am 04:59 Cloudy 63 17.2 59 15 87 87 WSW 14 22 29.62 1003 9 14 0.00 0.00
5:59 am 05:59 Cloudy 60 15.6 57 13.9 90 90 WNW 14 22 29.63 1004 8 13 0.00 0.00
6:59 am 06:59 Mostly Cloudy 58 14.4 53 11.7 84 84 WNW 13 20 29.66 1005 10 16 0.00 0.00
7:59 am 07:59 Mostly Cloudy 57 13.9 52 11.1 83 83 NW 18 30 29.70 1006 10 16 0.00 0.00
8:36 am 08:36 Cloudy 57 13.9 50 10 78 78 NW 17 28 29.72 1006 10 16 0.00 0.00
8:59 am 08:59 Cloudy 57 13.9 49 9.4 74 74 NNW 17 28 29.73 1007 10 16 0.00 0.00
9:59 am 09:59 Cloudy 58 14.4 50 10 75 75 NW 16 26 29.76 1008 10 16 0.00 0.00
10:59 am 10:59 Cloudy 57 13.9 49 9.4 74 74 NNW 12 19 29.78 1009 10 16 0.00 0.00
11:59 am 11:59 Cloudy 58 14.4 49 9.4 72 72 N 14 22 29.80 1009 10 16 0.00 0.00
12:59 pm 12:59 Cloudy 60 15.6 49 9.4 67 67 N 12 19 29.81 1010 10 16 0.00 0.00
1:29 pm 13:29 Mostly Cloudy 62 16.7 49 9.4 62 62 N 10 17 29.82 1010 10 16 0.00 0.00
1:59 pm 13:59 Mostly Cloudy 63 17.2 50 10 63 63 NNE 12 19 29.82 1010 10 16 0.00 0.00
2:59 pm 14:59 Mostly Cloudy 63 17.2 50 10 63 63 NNW 10 17 29.83 1010 10 16 0.00 0.00
3:59 pm 15:59 Mostly Cloudy 63 17.2 49 9.4 60 60 W 13 20 29.84 1010 10 16 0.00 0.00
4:59 pm 16:59 Mostly Cloudy 66 18.9 49 9.4 54 54 NNW 16 26 29.84 1011 10 16 0.00 0.00
5:59 pm 17:59 Mostly Cloudy 64 17.8 46 7.8 52 52 NNW 17 28 29.86 1011 10 16 0.00 0.00
6:59 pm 18:59 Mostly Cloudy 63 17.2 48 8.9 58 58 NNW 10 17 29.87 1012 10 16 0.00 0.00
7:59 pm 19:59 Partly Cloudy 63 17.2 44 6.7 50 50 NW 10 17 29.89 1012 10 16 0.00 0.00
8:59 pm 20:59 Mostly Clear 60 15.6 44 6.7 56 56 WNW 8 13 29.91 1013 10 16 0.00 0.00
9:59 pm 21:59 Mostly Clear 61 16.1 42 5.6 50 50 WNW 13 20 29.94 1014 10 16 0.00 0.00
10:59 pm 22:59 Clear 59 15 43 6.1 56 56 WNW 10 17 29.96 1014 10 16 0.00 0.00
11:59 pm 23:59 Clear 58 14.4 46 7.8 65 65 W 6 9 29.97 1015 10 16 0.00 0.00

Powered by AerisWeather